Погода в Деражне

Украина / Хмельницкая область     49°16′08″N   27°25′49″E
темп.,
°C
ветер,
м/с
пор.,
м/с
влажн.,
%
обл.,
%
осадки,
мм/ч
давл.,
гПа
погр.,
м
18 сентября, сб
сб1800:00+16ю4119265 0.3 1005314
03:00+15ююз599792 0.4 1004266
06:00+14з71195100 0.1 1003631
09:00+14зсз81388100 0.1 1005797
12:00+15зсз6983100 0.1 1007881
15:00+18зсз785824 0.1 10071369
18:00+15з6965100 0.1 10081279
21:00+13з398128 0.1 1009480
19 сентября, вс
вс1900:00+10з379617 0.0 1010168
03:00+11зюз3894100 0.2 1009351
06:00+11зюз3795100 0.3 1008318
09:00+11з4794100 1.1 1008541
12:00+7зсз51091100 2.0 1011659
15:00+8з588698 2.9 1011834
18:00+7з5883100 0.1 10111056
21:00+6з5886100 0.2 10111079
20 сентября, пн
пн2000:00+6з5887100 0.1 10111058
03:00+6зсз5889100 0.3 1011959
06:00+5зсз6991100 0.1 1011914
09:00+5зсз61193100 0.3 1012608
12:00+6зсз61193100 0.1 1013621
15:00+7зсз61091100 0.1 1014704
18:00+6сз61192100 0.0 1015647
21:00+6сз51090100 0.1 1016658
21 сентября, вт
вт2100:00+6зсз5988100 0.0 1017737
03:00+5зсз51086100 0.1 1018749
06:00+5зсз61084100 0.0 1018841
09:00+5зсз61081100 0.1 1019914
12:00+5сз71179100 0.1 1020931
15:00+7сз71072100 0.1 1021974
18:00+7сз61071100 0.0 10221061
21:00+6сз61077100 0.0 1023910
22 сентября, ср
ср2200:00+5сз5984100 0.0 1023809
03:00+5сз5988100 0.0 1023842
06:00+5сз61084100 0.0 1023734
09:00+6сз61074100 0.0 1023784
12:00+10сз7849100 0.0 10221540
15:00+12сз783895 0.0 10202043
18:00+11ссз684356 0.0 10191704
21:00+5сз49655 0.0 1020178